This is the latest recevied weather packets stored in our database for station/object KB1JL-13. If no packets are shown the sender has not sent any weather packets the latest 10 day(s).
| Time | Temp. | Humidity | Pressure | Rain* | Wind** | Luminosity | Snow |
|---|---|---|---|---|---|---|---|
| 1777933554 | 16.67° C | 61% | 1020.9 hPa | 0 mm | - | 114 W/m² | - |
| 1777933251 | 17.22° C | 58% | 1020.9 hPa | 0 mm | - | 124 W/m² | - |
| 1777932948 | 17.22° C | 58% | 1020.9 hPa | 0 mm | - | 141 W/m² | - |
| 1777932645 | 17.22° C | 58% | 1020.9 hPa | 0 mm | - | 154 W/m² | - |
| 1777932341 | 17.22° C | 58% | 1021.2 hPa | 0 mm | - | 169 W/m² | - |
| 1777932038 | 17.78° C | 57% | 1021.2 hPa | 0 mm | - | 183 W/m² | - |
| 1777931734 | 17.78° C | 55% | 1021.2 hPa | 0 mm | - | 189 W/m² | - |
| 1777931432 | 17.78° C | 56% | 1021.2 hPa | 0 mm | - | 206 W/m² | - |
| 1777931128 | 17.78° C | 55% | 1021.2 hPa | 0 mm | - | 217 W/m² | - |
| 1777930824 | 17.78° C | 54% | 1021.2 hPa | 0 mm | - | 213 W/m² | - |
| 1777930521 | 18.33° C | 54% | 1021.2 hPa | 0 mm | - | 181 W/m² | - |
| 1777930218 | 18.33° C | 54% | 1020.9 hPa | 0 mm | - | 270 W/m² | - |
| 1777929914 | 17.78° C | 54% | 1020.9 hPa | 0 mm | - | 276 W/m² | - |
| 1777929612 | 18.33° C | 52% | 1020.9 hPa | 0 mm | - | 85 W/m² | - |
| 1777929308 | 17.78° C | 53% | 1020.9 hPa | 0 mm | - | 301 W/m² | - |
| 1777929006 | 17.78° C | 53% | 1020.9 hPa | 0 mm | - | 321 W/m² | - |
| 1777928702 | 18.33° C | 53% | 1021.2 hPa | 0 mm | - | 78 W/m² | - |
| 1777928399 | 18.89° C | 52% | 1020.9 hPa | 0 mm | - | 327 W/m² | - |
| 1777928097 | 18.89° C | 50% | 1020.5 hPa | 0 mm | - | 367 W/m² | - |
| 1777927795 | 19.44° C | 50% | 1020.9 hPa | 0 mm | - | 361 W/m² | - |
| 1777927493 | 18.89° C | 51% | 1020.9 hPa | 0 mm | - | 390 W/m² | - |
| 1777927192 | 18.89° C | 51% | 1020.9 hPa | 0 mm | - | 275 W/m² | - |
| 1777926889 | 19.44° C | 51% | 1020.9 hPa | 0 mm | - | 350 W/m² | - |
| 1777926585 | 18.89° C | 50% | 1020.9 hPa | 0 mm | - | 397 W/m² | - |
| 1777926281 | 19.44° C | 48% | 1020.9 hPa | 0 mm | - | 448 W/m² | - |
* Rain latest hour (hover to see other rain measurements)
** Current wind speed in m/s (hover to see current wind gust speed)